Location: Atiwhakatu Stream
(40.9000°S, 175.5333°E)
Time: 23:31:56
(UTC+00:00)

Daily predictions for brighter satellites

Satellite Brightness Start Highest point End
(mag) Time Altitude Azimuth Time Altitude Azimuth Time Altitude Azimuth
Cosmos 2278 Rocket 4.0 14:19:32 25° S 14:19:32 25° S 14:21:58 10° SSE
NOSS 3-4 (A) 4.3 14:23:50 66° E 14:23:50 66° E 14:31:19 10° SE
NOSS 3-4 (C) 4.3 14:23:55 66° E 14:23:55 66° E 14:31:24 10° SE
Cosmos 2369 Rocket 4.1 14:33:20 22° ENE 14:33:30 22° E 14:37:44 10° SE
Cosmos 1943 Rocket 3.3 14:39:27 41° SE 14:39:27 41° SE 14:43:08 10° SSE
Cosmos 2297 4.4 14:50:38 51° ESE 14:50:38 51° ESE 14:55:17 10° SSE
SL-16 R/B 2.7 15:06:38 10° SSE 15:12:52 67° ENE 15:13:53 58° NNE
ISS -0.9 15:20:57 19° SE 15:20:57 19° SE 15:22:03 10° SE
IRS-P3 4.5 15:23:51 55° SSW 15:23:51 55° SSW 15:28:03 10° SSW
UNK 4.3 15:18:10 10° SSE 15:21:52 55° SSE 15:21:52 55° SSE
Cosmos 1605 Rocket 4.2 15:19:37 10° SSW 15:24:52 53° SW 15:24:52 53° SW
ATLAS CENTAUR R/B 3.1 15:18:55 10° SW 15:31:26 - NE 15:25:31 52° SSW
ARIANE 5 R/B 3.0 15:28:37 47° SSW 15:28:37 47° SSW 15:32:17 10° SSW
CZ-2D R/B 4.4 15:29:54 43° S 15:29:54 43° S 15:32:58 10° S
CZ-2C R/B 3.9 15:33:40 12° NE 15:33:40 12° NE 15:34:31 10° NE
YAOGAN 6 4.4 15:35:44 27° SSE 15:35:44 27° SSE 15:37:34 10° S
Cosmos 1666 3.8 15:38:49 41° E 15:38:53 41° E 15:42:28 10° SSE
RESURS DK-1 2.7 15:48:02 55° NE 15:48:22 58° ENE 15:52:28 10° SSE
Cosmos 1656 Rocket 3.5 15:49:38 50° NNW 15:51:08 86° ENE 15:56:41 10° SSE
Cosmos 1515 Rocket 3.8 15:47:36 10° S 15:52:01 69° E 15:55:34 15° NNE
Lacrosse 5 rocket 3.3 15:55:46 19° NNE 15:55:46 19° NNE 15:57:06 10° NNE
Cosmos 1818 3.9 15:49:21 10° SSW 15:54:45 64° SE 16:00:07 10° NE
Envisat 2.9 15:52:16 12° N 15:56:59 81° WNW 16:02:10 10° SSW
Cosmos 2123 Rocket 4.5 15:51:14 10° N 15:57:27 62° E 16:03:46 10° SSE
Meteor 1-19 Rocket 4.5 15:52:07 10° S 15:58:06 73° E 16:03:50 10° NNE
Okean 1 4.0 15:54:12 10° S 15:58:12 55° E 16:02:10 10° NNE
ATLAS 2AS CENTAUR R/B 2.7 15:57:49 29° NNW 16:01:15 70° ENE 16:07:50 10° SE
SL-4 R/B 2.0 16:01:18 64° SSW 16:01:18 64° SSW 16:05:08 10° SE
Cosmos 1500 4.0 16:04:20 37° SSW 16:04:20 37° SSW 16:06:58 10° S
Cosmos 2173 Rocket 3.9 15:56:52 10° S 16:03:20 86° W 16:09:38 10° N
CZ-2C R/B 2.9 16:01:14 10° NNE 16:06:23 88° WNW 16:11:21 10° SSW
NOAA 11 4.4 16:02:33 10° NNE 16:07:58 73° ESE 16:13:28 10° S
GPS 2-04 Rocket1 3.4 16:09:03 37° N 16:09:03 37° N 16:12:24 10° ENE
Cosmos 1743 Rocket 3.7 16:11:56 15° N 16:15:26 74° E 16:19:51 10° SSE
Lacrosse 5 4.0 16:12:51 10° SSW 16:17:02 24° SSE 16:21:11 10° E
Cosmos 2369 Rocket 2.4 16:15:08 36° WNW 16:17:05 52° WSW 16:22:38 10° SSE
CZ-2C R/B 2.8 16:13:58 10° NNE 16:17:58 87° E 16:22:05 10° SSW
Genesis I 3.0 16:14:38 11° SSW 16:18:12 88° ESE 16:22:02 10° NNE
Cosmos 1867 3.9 16:15:21 19° NNW 16:19:09 65° ENE 16:24:31 10° SE
SWAS 4.3 16:17:18 10° SSW 16:21:40 84° WNW 16:25:59 10° NNE
Cosmos 1943 Rocket 3.7 16:20:58 18° WSW 16:21:48 19° SW 16:25:44 10° S
Cosmos 1315 Rocket 4.1 16:23:37 25° SW 16:23:37 25° SW 16:26:17 10° SSW
Cosmos 1500 Rocket 3.5 16:21:07 19° NNW 16:24:17 77° W 16:28:47 10° S
Cosmos 1302 Rocket 3.9 16:19:56 10° SSW 16:25:14 85° WNW 16:30:29 10° NNE
Cosmos 1331 Rocket 4.4 16:21:30 10° SW 16:26:23 39° WNW 16:31:11 10° N
Cosmos 1544 2.9 16:25:47 32° NNW 16:27:19 70° W 16:30:59 10° S
Meteor 1-27 Rocket 4.3 16:23:28 10° SSW 16:28:24 33° W 16:30:43 24° NW
PSLV R/B 3.4 16:24:29 10° N 16:28:41 66° WNW 16:32:56 10° SSW
Elektron 1 3.9 16:31:45 38° WNW 16:32:50 65° SW 16:35:48 10° SSE
Cosmos 2100 Rocket 4.2 16:28:18 10° SSW 16:34:19 46° W 16:40:13 10° NNW
Cosmos 2061 Rocket 4.0 16:29:08 10° S 16:35:38 89° W 16:41:58 10° N
Sich 1 3.2 16:31:35 10° N 16:35:52 75° E 16:40:15 10° S
H-2A R/B 3.0 16:33:12 10° N 16:36:49 44° W 16:40:30 10° SSW
Helios 1A 3.2 16:33:33 10° S 16:37:39 49° WSW 16:40:14 21° NW
Cosmos 1269 Rocket 4.0 16:32:58 13° NNW 16:37:44 77° WSW 16:43:06 10° SSE
Meteor 1-18 Rocket 4.3 16:32:20 10° S 16:38:23 87° W 16:44:19 10° N
Cosmos 389 Rocket 4.1 16:39:11 18° SW 16:39:11 18° SW 16:41:00 10° SSW
SJ-6F 4.4 16:36:02 10° N 16:40:04 57° W 16:44:10 10° SSW
Cosmos 1939 Rocket 4.2 16:37:24 10° NE 16:41:05 42° ESE 16:44:48 10° S
SL-08 R/B 4.4 16:37:02 10° S 16:43:21 77° W 16:49:29 10° N
Cosmos 2016 Rocket 4.0 16:38:35 10° SSW 16:44:45 64° W 16:50:56 10° N
CZ-4C R/B 4.0 16:44:02 10° SSW 16:48:49 28° SE 16:52:51 10° E
ATLAS 3B R/B 3.7 16:43:03 10° SSW 16:49:24 46° SE 16:55:28 10° ENE
SL-16 R/B 3.8 16:51:23 10° SSW 16:55:51 21° WSW 16:58:59 15° W
ISS -1.5 16:53:50 11° SW 16:55:57 17° SSW 16:58:17 10° SSE
SJ-12 4.1 16:52:47 10° N 16:56:49 49° W 17:00:55 10° SSW
Cosmos 614 Rocket 4.0 16:53:08 10° NNW 16:58:20 88° WSW 17:03:40 10° SSE
GP-B 3.2 16:56:45 10° S 17:01:17 84° E 17:05:45 10° N
Cosmos 1378 4.1 16:59:12 10° SSW 17:02:20 26° W 17:05:26 10° NNW
USA 215 3.3 16:56:05 10° SE 17:02:45 86° SW 17:09:21 10° NW
H-2A R/B 3.0 16:59:35 10° NNE 17:04:43 54° ESE 17:09:46 10° S
Cosmos 1833 4.3 16:59:46 10° SSW 17:05:16 54° WNW 17:10:43 10° N
CZ-4B R/B 3.9 17:01:56 10° N 17:06:52 42° W 17:11:45 10° SSW
Meteor 1-31 Rocket 2.8 17:05:26 10° NNE 17:09:21 88° W 17:13:22 10° SSW
CZ-2C R/B 2.6 17:07:22 10° NW 17:10:56 29° NNE 17:14:28 10° ENE
Cosmos 2098 Rocket 3.7 17:11:52 10° N 17:16:37 84° E 17:22:40 10° S
SMAP 4.5 17:13:04 10° NE 17:17:30 44° ESE 17:22:00 10° S
SJ-7 4.5 17:13:19 10° NNE 17:17:32 87° WNW 17:21:45 10° SSW
Landsat 4 4.0 17:14:52 10° N 17:18:28 44° W 17:22:08 10° SSW
Cosmos 2228 Rocket 3.4 17:14:39 10° SSW 17:19:08 47° W 17:23:32 10° NNW
CBERS 1 LM4 rocket 4.5 17:17:06 10° NNE 17:22:05 89° ESE 17:26:58 10° SSW
ADEOS 4.5 17:17:47 10° NNE 17:22:55 56° ESE 17:28:06 10° S
Cosmos 2297 Rocket 4.4 17:21:27 10° S 17:26:21 29° SE 17:31:13 10° ENE
RESURS DK-1 4.3 17:24:25 10° W 17:26:44 14° SW 17:29:02 10° SSW
Cosmos 2233 Rocket 4.3 17:23:30 10° SSW 17:29:30 47° W 17:35:28 10° NNW
Cosmos 1992 Rocket 4.2 17:24:31 10° SSW 17:29:38 50° WNW 17:34:40 10° N
